GEFSCGP_500_meanwind_168.txt.gz
Wind_Speed
29 29 26 25 24 24 23 22 21 22 20 18 17 16 15 14 14 14 13 12 12 12 13 13 12 11 10 11 11 10 11 11 11 12 13 14 14 15 15 15 15 14 15 14
31 29 28 28 27 26 24 23 23 23 21 19 18 17 16 15 15 15 15 14 14 14 14 14 13 11 10 10 11 10 10 11 12 13 14 15 16 17 17 17 16 16 16 16
31 29 30 29 28 26 25 24 24 23 21 20 18 17 17 16 16 16 15 14 14 14 13 12 12 11 11 11 11 12 12 12 13 13 14 15 16 17 18 17 17 17 17 17
33 32 31 29 28 27 26 26 25 23 21 20 19 17 18 17 16 16 16 15 14 14 13 13 12 11 12 12 13 13 13 13 14 14 14 15 16 18 19 20 19 19 19 18
32 31 30 29 28 27 27 27 25 23 22 21 20 18 18 18 17 16 16 16 15 14 14 14 13 13 13 13 13 13 14 15 16 17 17 17 18 18 19 21 22 22 21 19
32 32 31 29 29 29 28 27 26 24 23 23 21 19 18 18 17 16 16 16 16 15 15 15 14 14 14 14 14 14 15 15 15 16 16 17 19 19 19 19 20 21 21 21
31 31 31 31 31 30 29 27 26 25 24 23 23 20 20 19 17 17 17 16 16 15 15 15 15 14 14 15 15 15 16 16 15 16 16 16 17 19 19 19 20 21 21 20
30 30 31 31 31 30 29 27 25 23 21 21 23 21 20 17 17 16 16 16 15 15 14 15 15 14 14 14 15 15 15 16 15 15 15 15 16 17 19 20 20 20 20 21
29 29 29 30 30 30 29 28 26 24 22 20 21 20 18 16 16 16 15 15 15 14 13 13 13 13 14 14 14 14 14 14 14 15 15 15 15 16 17 19 20 20 20 20
29 29 28 29 30 30 29 28 29 26 23 20 20 18 17 16 16 16 15 15 15 14 14 14 13 13 14 14 14 14 14 14 15 15 15 16 15 16 17 17 19 20 19 19
28 28 28 29 30 29 30 30 28 26 24 19 17 17 17 16 15 15 14 13 13 13 13 14 14 14 14 14 15 15 14 15 15 15 15 15 15 15 16 17 18 18 19 18
28 27 27 28 28 28 28 28 27 26 24 22 17 17 17 16 16 16 15 14 14 13 14 15 15 15 15 15 14 14 14 14 14 14 14 15 15 15 15 15 15 16 18 19
28 29 28 29 30 30 29 28 27 25 23 21 19 18 17 16 16 16 15 15 14 14 14 14 14 15 15 15 15 14 13 13 13 13 13 13 14 14 15 15 14 15 17 18
27 28 27 26 25 27 28 28 26 25 23 21 20 19 18 16 16 16 15 15 14 14 14 13 13 13 14 15 15 14 13 12 11 12 12 13 13 13 14 15 15 16 17 18
26 27 27 27 27 26 26 26 27 26 23 21 20 19 19 17 16 17 16 15 14 13 13 13 13 13 13 13 13 14 14 13 12 12 13 13 14 14 14 15 16 17 18 18
26 26 26 27 27 26 26 27 26 26 24 22 21 21 20 18 18 17 16 16 15 14 13 13 14 14 14 14 14 14 14 14 13 13 14 14 15 15 15 15 15 17 18 18
26 25 26 26 26 27 28 27 27 25 24 23 22 21 20 19 18 17 17 16 16 15 15 14 14 14 15 15 14 15 15 15 15 15 15 15 15 16 16 16 17 17 17 18
27 26 25 25 27 28 26 26 26 25 24 23 23 22 20 20 19 18 17 17 17 17 17 16 16 15 15 15 15 15 15 16 16 16 15 15 16 16 17 17 17 18 18 19
28 27 27 27 28 28 28 26 26 25 25 23 22 21 21 20 20 20 18 18 18 18 17 18 17 17 17 16 16 16 17 17 17 17 17 17 17 17 17 18 19 19 20 21
29 28 28 28 27 28 28 26 25 25 25 24 23 22 21 20 21 20 19 19 19 19 18 18 18 18 18 17 17 17 17 17 17 17 16 17 18 18 18 18 18 18 19 20
30 29 29 28 28 27 28 27 26 26 25 24 23 22 22 22 22 21 21 20 20 20 19 19 19 18 18 18 17 17 17 18 18 18 17 17 18 19 18 18 18 19 19 19
31 30 30 29 28 28 28 27 28 27 25 24 23 23 23 22 22 22 21 21 21 20 20 20 20 20 19 19 18 18 18 19 18 18 18 18 18 19 19 19 20 21 21 21
33 32 31 31 30 28 27 27 27 28 27 26 25 24 23 23 23 22 22 22 22 21 21 21 21 21 21 20 20 20 20 20 20 20 20 20 20 20 21 21 22 23 23 23
31 30 30 30 29 26 25 25 25 26 27 27 26 25 24 23 22 22 22 22 22 21 21 21 21 21 22 21 21 22 21 21 21 21 21 21 21 22 22 23 24 24 25 25
29 29 29 29 28 27 25 24 25 26 27 28 27 25 24 24 23 22 22 22 22 22 22 22 21 21 21 22 22 22 22 22 23 23 23 23 23 23 23 24 25 26 26 26
28 29 29 29 28 27 26 25 25 26 26 26 26 25 24 23 23 23 23 23 22 22 22 22 22 21 22 22 22 22 22 23 23 24 24 23 23 24 24 25 25 26 27 27

GEFSCGP_500_meanwind_174.txt.gz
Wind_Speed
28 28 27 25 23 20 17 15 15 14 17 20 17 16 16 15 15 17 16 15 13 12 12 12 12 11 11 11 11 10 10 10 10 10 11 11 12 12 11 11 11 12 12 12
29 28 25 25 25 23 22 21 17 17 20 22 20 18 18 18 17 17 16 16 15 14 13 13 12 11 12 12 12 11 10 10 11 11 11 11 11 12 12 12 12 12 12 13
28 25 26 27 26 26 25 23 19 19 21 22 20 19 20 21 19 20 18 18 17 15 13 14 13 12 12 12 11 11 10 11 11 11 11 12 12 12 13 13 13 14 14 15
29 27 28 28 28 27 26 24 21 21 22 21 20 19 21 22 21 20 20 19 17 17 15 14 14 14 12 11 11 11 11 11 11 10 11 11 12 13 14 15 15 15 15 15
30 29 29 29 28 27 25 23 23 24 24 22 20 20 21 23 23 21 19 17 17 18 17 15 15 14 14 12 12 12 13 13 12 12 12 13 13 14 14 14 15 15 16 16
29 30 30 29 28 28 27 25 25 25 24 25 22 21 23 24 21 20 18 17 17 18 17 16 15 15 15 14 14 14 14 14 14 13 14 14 14 15 15 15 15 15 16 16
30 30 30 30 29 29 29 27 26 25 25 24 22 23 24 23 21 18 17 18 17 18 17 17 16 16 15 15 15 15 14 15 15 15 15 15 15 15 15 15 16 16 16 16
29 29 29 29 29 29 29 28 25 23 21 21 21 24 24 22 21 19 18 18 18 18 18 17 17 16 16 16 15 15 15 14 14 15 15 15 16 16 15 15 15 16 16 17
24 24 26 27 26 28 29 28 24 21 18 17 19 20 23 24 23 22 21 20 18 18 17 17 16 15 15 15 15 15 15 15 15 15 16 16 17 16 16 15 15 15 15 16
23 22 24 25 27 29 28 27 27 26 24 22 21 23 24 23 23 23 22 20 19 18 17 17 17 16 15 15 15 15 15 15 15 16 16 16 17 16 16 16 15 15 15 15
25 23 23 26 28 28 28 29 29 27 26 22 20 21 22 21 21 20 19 18 18 18 17 17 16 16 16 15 15 16 16 16 16 16 16 16 16 16 17 16 16 15 15 16
26 24 24 25 25 25 27 28 30 29 28 25 22 19 19 21 20 18 17 17 18 18 17 16 16 15 15 15 15 16 16 16 16 15 15 16 17 17 17 17 16 15 15 16
28 27 26 25 25 26 28 29 30 30 28 26 23 20 19 20 18 18 16 17 18 17 16 15 14 14 15 15 16 16 16 16 16 16 16 16 16 16 16 16 15 15 14 15
30 31 28 25 25 25 27 29 29 30 29 27 25 23 22 20 18 18 16 17 18 17 17 16 16 15 15 16 16 15 15 15 16 17 17 17 16 16 15 15 15 15 15 15
30 31 30 28 25 23 26 28 30 30 28 26 24 25 25 21 20 19 17 17 18 17 17 16 16 15 15 16 16 16 15 15 16 17 17 17 16 15 15 15 15 15 15 15
30 30 30 29 27 25 24 25 27 28 28 28 28 25 23 24 22 21 19 19 19 18 17 16 16 16 16 16 16 17 16 16 16 17 17 17 17 16 15 15 15 15 15 15
29 29 30 30 29 27 27 27 27 27 28 29 29 26 24 25 23 22 21 21 19 18 18 17 17 16 16 16 17 17 17 17 17 18 18 17 17 17 17 17 16 17 17 17
28 29 29 28 28 29 27 26 27 27 29 30 30 29 29 28 26 25 22 21 20 19 19 18 17 16 16 16 17 17 18 18 19 19 18 18 18 18 18 18 18 19 18 18
29 28 29 27 26 26 26 28 30 31 30 30 32 32 29 28 28 26 23 21 20 20 19 18 17 17 17 17 18 18 19 19 19 19 19 19 19 19 18 19 19 20 19 19
30 29 29 29 28 28 27 28 29 29 30 31 32 30 29 28 27 24 23 22 20 20 20 20 19 18 19 19 19 19 19 20 20 19 19 19 19 19 19 19 20 20 20 20
31 31 31 30 29 28 28 28 28 30 30 29 28 28 28 27 25 23 22 22 21 21 21 20 20 20 20 20 20 20 20 20 20 19 19 20 20 20 20 21 21 21 21 21
31 31 31 32 31 30 29 28 30 30 28 28 28 28 28 26 25 24 23 23 22 21 21 22 22 22 22 21 21 21 21 20 20 20 20 20 20 21 20 21 21 21 20 21
32 34 33 34 33 30 29 28 29 28 28 27 27 27 27 26 25 24 24 24 22 21 22 22 22 22 22 21 22 21 21 21 21 21 21 21 21 21 21 21 21 21 21 22
31 34 35 33 32 30 28 25 26 27 28 27 27 26 25 25 26 26 26 25 24 22 22 22 22 22 22 22 22 21 21 21 22 22 21 21 21 22 22 22 23 23 23 23
30 33 34 32 32 32 29 27 26 26 26 27 27 27 26 27 27 26 26 25 24 23 23 23 22 22 22 22 22 22 21 21 21 21 22 22 22 22 23 23 24 23 24 25
33 31 30 32 31 28 28 28 26 26 26 26 26 26 27 27 26 26 26 25 24 23 23 23 22 21 21 21 22 21 21 21 22 23 23 23 23 24 24 24 23 24 24 25

GEFSCGP_500_meanwind_180.txt.gz
Wind_Speed
29 29 26 25 24 23 23 23 21 18 16 16 15 15 15 15 16 14 12 12 11 8 8 8 8 8 8 8 5 4 4 4 5 5 5 6 7 6 6 7 7 7 7 7
30 27 25 27 27 26 25 24 22 19 18 17 16 16 16 17 17 16 15 14 12 10 9 9 9 9 9 7 6 5 5 5 6 6 6 7 8 8 7 7 7 8 8 8
29 26 28 28 28 27 27 25 22 20 20 19 19 19 19 19 19 18 16 14 12 12 10 10 11 10 10 9 8 7 6 5 6 7 7 7 7 8 8 8 8 9 9 9
30 30 30 30 28 27 26 25 23 23 22 21 21 22 21 20 21 19 17 14 13 13 12 10 11 11 11 11 9 8 7 7 7 7 6 6 6 7 8 8 9 9 9 10
30 30 30 29 28 27 26 25 25 25 25 25 24 24 22 22 22 19 18 17 15 14 13 12 12 11 11 11 9 8 8 7 8 8 7 7 7 8 8 9 9 10 10 11
30 31 31 29 28 28 27 28 28 28 28 29 26 26 25 23 21 19 18 19 18 16 15 14 13 12 11 11 10 9 8 9 9 8 8 8 8 8 8 9 10 11 11 12
31 32 30 30 30 29 30 31 31 31 31 29 27 28 25 22 21 20 19 19 18 16 16 15 13 12 11 10 10 10 10 10 10 10 9 9 8 8 9 9 10 10 11 12
31 31 31 30 30 30 30 32 33 32 32 29 27 28 25 22 21 21 19 16 16 15 14 13 13 13 12 11 11 10 10 11 11 11 11 11 10 10 10 10 10 11 12 12
30 29 30 30 29 29 30 32 32 32 31 30 28 27 25 23 21 20 18 16 15 14 12 13 12 12 11 11 10 11 11 11 11 12 11 11 11 10 11 11 11 11 11 11
29 29 29 30 30 30 30 30 32 33 32 30 29 27 24 22 21 20 18 16 15 14 12 12 12 12 12 11 11 11 12 12 12 13 12 11 11 11 12 12 12 12 12 12
29 30 30 31 31 29 30 32 32 33 32 31 29 26 23 22 20 19 18 17 16 15 13 12 12 13 12 12 11 11 12 13 13 13 13 12 12 12 12 12 13 13 13 13
28 29 30 30 29 28 29 31 32 33 32 31 30 26 23 21 20 20 19 16 13 13 13 13 14 14 13 12 11 12 13 14 14 14 13 13 12 13 13 13 13 13 14 14
29 29 29 30 29 29 29 31 32 32 31 31 30 26 24 21 18 17 17 15 13 14 14 14 14 13 13 12 12 12 13 14 14 14 13 13 13 13 13 13 14 14 15 15
30 30 30 29 28 28 29 30 32 33 33 32 30 26 23 20 17 16 15 13 13 14 14 13 13 13 14 13 12 12 13 13 14 13 12 12 12 13 13 14 15 15 15 15
30 30 30 29 29 28 29 30 31 33 33 31 29 28 24 21 18 16 14 14 13 13 14 14 14 14 14 13 13 13 13 13 13 12 13 13 13 13 13 14 14 14 14 14
32 32 31 30 30 30 30 30 31 32 32 31 30 29 25 23 20 18 16 15 14 13 14 14 13 14 13 13 14 14 14 14 13 13 14 14 13 14 14 14 14 14 14 14
34 33 32 31 31 32 32 31 31 32 32 32 32 29 26 24 23 21 18 17 16 16 16 14 14 14 15 15 14 14 14 14 14 14 14 14 14 15 16 16 16 15 15 16
33 33 33 32 32 33 30 30 31 31 31 31 30 29 27 26 24 23 22 19 18 17 17 16 16 15 14 14 14 15 15 15 15 14 15 15 16 16 17 17 16 16 16 16
33 33 33 33 34 34 32 31 30 31 31 31 30 29 28 26 26 23 22 21 18 17 17 16 16 15 14 14 15 16 16 16 16 16 16 16 17 17 17 17 17 17 17 17
33 33 34 34 35 35 33 31 30 30 31 30 30 30 29 28 27 25 23 22 20 20 19 16 15 16 16 16 16 16 16 16 17 17 17 18 18 18 18 17 17 18 17 18
33 33 34 35 35 35 33 32 31 32 30 29 30 30 30 29 28 25 23 21 20 19 17 16 16 16 16 17 17 16 16 16 17 17 18 18 18 19 18 18 18 19 19 19
33 33 34 34 36 35 34 33 34 32 30 29 29 29 29 28 28 26 24 22 20 18 18 18 17 17 17 17 17 17 17 17 17 18 18 18 18 18 18 18 19 19 19 20
33 33 34 34 33 32 33 34 33 32 30 29 29 30 29 28 26 26 24 23 20 20 19 17 17 16 16 16 17 18 18 18 18 18 18 18 19 19 18 18 18 19 19 19
32 32 32 33 32 31 30 32 32 32 30 28 28 28 26 26 25 24 23 22 21 20 19 18 17 16 17 17 18 19 19 18 18 19 19 19 19 18 18 18 19 19 20 20
32 31 32 32 31 30 30 29 28 27 29 29 27 27 26 24 24 23 23 21 20 19 19 18 17 17 18 18 19 19 19 18 19 19 19 19 19 18 19 19 20 20 20 21
31 30 30 30 30 29 29 28 27 26 26 26 25 24 22 21 22 22 22 20 20 20 20 19 19 19 19 19 19 19 19 19 19 19 19 19 19 19 20 20 20 21 21 22

GEFSCGP_500_meanwind_186.txt.gz
Wind_Speed
31 30 28 27 27 26 25 24 23 23 23 22 21 19 16 14 11 8 7 6 5 5 6 7 7 8 9 9 8 6 6 5 4 5 6 7 7 8 8 7 7 6 6 6
32 30 29 29 29 28 27 25 24 25 25 25 23 21 19 16 13 10 8 7 6 6 6 6 7 8 9 10 9 8 6 6 5 6 7 8 8 8 9 9 9 8 7 7
32 30 31 31 30 29 28 27 26 26 27 26 24 23 21 17 15 12 10 8 7 7 7 7 8 9 10 10 9 8 7 6 6 7 7 8 9 9 9 9 9 9 9 9
33 32 32 32 31 30 28 27 28 28 28 28 26 25 21 19 17 14 12 10 10 9 9 8 8 9 10 10 10 10 8 8 7 7 7 8 9 9 9 9 10 10 10 9
33 32 33 32 31 30 29 29 30 30 30 30 28 27 23 21 18 15 13 12 11 11 10 10 10 11 11 10 11 12 11 10 10 8 8 8 9 9 9 9 10 10 10 10
34 33 33 32 32 32 31 31 31 31 31 31 29 28 25 21 18 16 14 13 12 12 12 11 11 12 12 12 12 13 11 10 10 9 8 8 8 9 9 10 11 11 11 12
35 34 34 33 33 33 33 32 32 33 32 31 29 29 25 21 19 17 15 14 13 13 12 11 13 13 13 13 13 13 12 11 10 10 10 10 9 10 11 11 12 12 12 12
35 34 34 34 33 33 33 33 33 33 32 30 28 29 25 21 19 18 18 16 15 14 12 12 13 13 13 13 13 13 12 12 11 11 11 11 10 11 11 12 13 12 13 13
34 33 33 32 32 33 32 33 32 33 33 31 30 28 25 21 20 19 19 19 17 15 13 13 13 13 13 13 13 13 13 12 12 12 11 10 10 11 12 13 13 13 13 13
34 33 33 33 33 34 33 32 33 33 33 32 30 28 25 22 21 21 20 19 17 16 14 14 14 14 13 13 13 13 12 12 12 12 12 12 12 12 13 13 13 13 13 13
33 33 33 34 34 33 33 33 33 33 33 32 30 27 24 22 21 20 19 18 17 15 15 15 14 14 14 13 14 13 12 12 11 11 12 13 14 13 13 13 14 14 14 14
33 33 33 33 33 33 33 33 33 33 32 31 30 27 24 22 21 20 19 17 17 16 16 15 15 14 15 14 14 13 13 13 13 13 13 14 14 13 13 13 14 15 15 15
32 32 33 33 33 33 33 32 32 32 32 32 30 27 24 22 20 19 19 18 17 16 16 16 16 15 15 15 14 14 14 14 14 15 14 14 14 14 14 14 15 15 15 15
31 30 31 31 31 31 31 31 32 32 32 31 29 27 25 23 21 20 19 18 17 17 17 16 15 15 16 16 16 16 16 16 16 16 16 15 15 14 13 14 15 15 15 15
30 29 29 30 31 31 31 31 31 31 31 30 29 27 24 23 21 20 18 17 17 17 16 15 15 15 16 16 17 16 16 16 15 15 15 15 15 14 14 14 15 16 16 16
30 29 29 29 30 31 31 31 31 30 30 29 28 27 24 23 21 19 19 17 15 15 15 15 15 16 15 15 16 16 16 16 15 14 14 15 15 14 14 15 15 16 16 16
30 29 29 29 29 30 31 31 31 30 29 28 27 25 24 23 21 20 19 18 17 15 14 14 15 16 15 15 16 16 16 16 15 15 14 14 15 15 14 15 15 15 15 16
30 29 29 29 29 31 30 29 30 29 28 27 26 24 24 24 22 21 20 19 19 17 16 16 16 15 15 15 15 16 15 15 14 14 14 15 16 16 15 16 16 16 16 17
30 30 30 30 30 30 30 29 28 27 26 26 25 24 24 23 23 22 21 20 20 19 18 17 17 16 16 15 16 15 15 15 15 15 15 15 16 16 16 16 16 17 18 18
31 31 31 30 31 31 28 28 28 27 27 25 25 24 23 23 23 22 21 21 20 20 18 17 17 16 16 16 15 15 14 15 16 16 16 16 17 17 17 17 17 18 19 20
31 32 31 31 30 30 28 28 28 28 26 25 25 24 23 23 23 23 23 22 21 21 19 18 17 17 17 16 15 15 15 15 16 16 17 17 16 17 17 18 19 20 20 21
32 31 31 30 31 30 28 27 27 27 26 25 24 24 24 24 24 24 23 22 22 21 20 19 19 18 18 17 16 15 14 14 15 15 16 16 16 17 18 20 21 21 22 23
32 32 31 31 30 28 27 27 27 27 26 25 25 24 24 24 23 23 23 21 20 20 19 19 19 18 18 17 15 15 14 14 15 15 15 16 16 18 19 20 20 21 22 22
33 31 30 30 29 28 27 27 27 27 27 26 26 25 25 25 24 23 22 22 22 21 20 19 19 18 18 17 16 16 15 16 16 16 16 17 17 18 19 19 19 19 20 20
33 32 30 29 28 27 26 27 28 28 28 27 27 26 26 26 25 25 24 23 22 21 20 20 19 18 17 17 16 16 16 17 17 17 17 18 18 18 18 18 18 18 19 20
32 32 30 28 27 26 25 25 26 27 27 27 27 26 26 26 26 24 24 23 21 20 19 18 18 18 17 16 16 16 16 17 17 18 18 18 18 18 18 19 19 20 20 21

GEFSCGP_500_meanwind_192.txt.gz
Wind_Speed
29 29 27 25 24 24 22 21 20 20 17 15 14 12 10 9 8 8 7 6 6 6 5 5 6 5 5 6 6 6 6 6 6 5 5 6 7 7 7 7 7 6 6 6
30 29 28 28 27 26 24 23 23 22 20 18 16 14 12 12 11 10 9 9 9 8 7 7 6 6 7 7 7 6 6 5 6 5 5 6 7 8 8 8 8 8 8 7
31 30 30 29 28 27 26 25 24 23 21 20 18 16 15 14 13 12 11 11 10 9 8 8 8 8 8 8 8 8 6 5 6 6 6 7 7 8 9 9 9 10 9 9
34 32 31 30 29 28 28 27 26 25 23 22 20 17 17 15 13 13 12 12 11 11 10 10 10 9 10 10 10 8 6 6 6 7 8 8 8 8 9 10 10 10 10 10
34 32 32 31 30 29 30 28 27 26 25 24 22 19 18 16 14 13 13 12 12 12 12 12 11 10 11 11 10 9 7 7 8 9 10 9 9 9 9 10 11 11 11 11
36 34 33 33 32 32 31 29 28 27 26 26 23 21 19 17 15 14 14 14 13 13 13 13 12 12 12 11 11 10 9 9 10 10 10 10 10 10 11 11 11 11 11 12
36 35 35 34 34 34 32 30 28 28 27 26 24 22 20 18 16 15 15 14 14 14 14 14 13 13 12 11 12 12 11 11 11 11 11 12 12 12 12 11 11 11 12 12
35 35 34 34 34 33 31 31 29 26 24 24 25 23 21 18 17 16 16 15 15 15 14 14 14 13 13 12 12 12 12 12 12 12 12 11 11 12 11 11 11 12 12 12
34 34 34 33 33 33 32 31 30 28 26 23 24 22 20 19 17 17 17 16 16 15 15 15 15 14 13 13 13 13 13 13 12 11 11 11 11 11 11 11 11 12 12 13
34 34 33 33 33 33 32 31 31 29 27 24 23 22 21 19 18 17 17 16 16 16 16 16 16 15 14 14 14 14 14 14 13 13 11 11 11 11 11 12 12 13 14 14
33 33 33 33 33 32 31 31 31 29 28 23 19 20 21 19 18 17 16 16 16 16 16 16 15 15 15 14 14 14 14 14 14 13 12 12 12 12 13 13 14 14 15 15
32 32 32 32 32 32 31 30 29 29 28 25 20 20 21 19 18 17 17 16 16 16 16 16 16 16 16 16 16 16 15 14 14 14 14 13 13 13 13 14 15 15 16 16
32 32 32 32 33 32 32 31 30 29 28 26 22 21 22 19 18 18 17 17 17 17 17 17 17 17 17 17 17 16 15 15 15 15 15 15 15 15 15 15 16 16 16 17
31 31 30 28 29 31 30 30 29 29 28 26 24 22 23 20 19 19 18 18 18 17 18 18 18 17 17 17 17 16 16 16 16 16 16 17 16 16 16 17 17 17 17 18
30 30 31 31 31 30 29 29 29 28 27 25 24 24 24 22 21 21 20 20 20 18 18 18 17 17 16 17 17 17 17 16 16 16 17 18 18 17 18 17 17 17 18 18
29 30 30 30 30 29 29 29 29 28 27 26 25 24 24 22 21 21 20 20 20 19 18 18 17 17 17 17 17 17 16 16 17 18 18 18 17 17 17 17 18 19 19 19
28 28 28 28 29 29 29 29 29 28 26 25 25 24 23 22 21 21 21 20 20 19 19 18 17 16 16 16 16 17 17 17 17 18 17 17 17 16 16 17 17 18 18 19
28 28 27 27 29 27 28 28 27 27 26 25 24 24 23 22 21 21 21 21 20 19 19 18 18 17 17 16 16 16 17 18 18 18 17 17 17 16 17 17 17 18 19 19
27 28 28 27 27 28 28 27 26 26 25 25 24 23 22 22 22 22 22 21 20 20 20 20 19 18 17 17 16 15 16 17 18 18 18 18 18 18 19 19 19 19 19 20
27 28 28 28 26 26 26 26 25 25 25 24 24 23 22 22 22 22 22 22 21 21 21 20 20 19 18 17 16 16 16 17 18 18 19 19 19 19 19 20 19 19 19 20
27 28 28 27 26 26 26 25 24 25 25 24 24 23 23 23 23 23 23 23 22 21 21 20 20 20 19 18 18 17 17 18 18 19 19 20 20 20 19 19 19 20 20 21
28 28 29 28 26 26 24 24 25 24 24 23 23 23 24 25 24 24 24 23 23 22 21 21 21 20 20 19 19 19 19 19 20 20 20 20 20 20 20 19 20 20 20 21
29 29 29 29 28 26 24 24 24 24 24 24 24 24 24 25 25 25 24 24 23 23 23 22 22 21 20 21 21 20 20 20 20 20 20 20 20 20 20 20 20 20 20 21
29 29 29 29 28 26 25 25 25 24 24 24 24 24 24 24 25 25 25 24 23 23 23 23 23 22 22 22 22 22 22 21 20 19 19 19 19 19 19 19 19 20 20 20
30 29 29 28 27 27 26 26 25 25 25 25 25 25 25 25 25 25 25 25 25 24 23 23 22 22 22 23 23 23 23 22 21 20 19 19 19 19 20 20 20 21 21 21
30 30 30 29 28 27 27 26 26 26 25 25 25 26 25 25 25 25 25 26 26 25 24 23 22 22 22 22 23 23 23 22 22 21 21 21 21 21 21 22 22 22 22 23

GEFSCGP_500_meanwind_198.txt.gz
Wind_Speed
26 25 24 21 19 16 14 14 12 12 16 15 13 13 12 11 10 9 9 10 8 8 9 9 9 10 10 10 10 10 10 10 10 9 9 8 7 6 6 6 6 6 7 7
28 26 23 23 22 21 20 17 14 14 18 18 16 15 14 13 11 11 10 10 9 10 9 9 9 9 10 10 11 10 10 11 10 9 8 8 7 7 8 8 7 7 7 7
28 25 25 25 25 24 23 20 17 17 19 19 16 15 16 17 15 13 12 12 10 10 10 9 9 9 10 10 11 11 11 11 10 9 9 8 8 8 9 8 7 7 7 7
29 27 27 27 26 25 24 21 19 19 21 19 16 16 17 18 16 14 13 13 13 12 11 11 10 10 10 11 11 11 11 11 10 9 9 9 9 9 9 8 8 8 8 8
31 29 29 28 27 26 25 21 22 21 21 20 18 17 16 19 16 14 13 14 14 13 12 12 10 10 11 11 11 12 11 11 11 10 10 11 10 10 10 9 9 9 8 8
32 31 30 29 28 27 26 23 23 23 21 22 19 18 17 20 19 16 15 15 14 13 12 12 11 10 11 11 12 12 12 12 12 11 11 11 11 11 10 10 10 9 9 9
33 32 31 31 30 28 28 26 23 22 22 21 18 19 18 19 19 17 16 15 15 14 14 14 13 11 11 12 12 12 13 13 12 12 12 12 12 12 11 10 11 10 9 9
32 31 31 31 30 29 29 28 25 20 17 16 16 18 17 19 21 20 18 17 16 16 15 15 14 13 12 13 13 13 13 13 13 13 12 12 13 14 13 12 11 11 10 9
30 30 31 30 29 29 29 28 24 20 16 15 16 17 18 21 21 20 18 17 17 17 16 16 15 14 13 13 14 14 14 14 13 13 13 14 14 13 13 12 10 10 10 10
27 27 29 30 30 30 29 27 26 26 22 19 17 18 20 20 20 19 18 17 18 18 18 17 16 16 15 15 15 15 15 15 14 14 15 14 14 14 13 12 12 11 11 11
28 25 26 29 31 30 30 29 29 27 24 20 17 18 19 22 22 20 18 17 16 16 17 17 17 16 16 17 16 16 16 16 15 15 15 14 14 14 14 13 12 12 12 13
31 26 25 28 27 28 28 28 28 28 27 25 21 18 18 20 20 19 18 16 16 17 17 17 18 17 17 17 17 17 16 15 15 15 15 15 15 15 15 14 13 13 14 14
32 30 27 26 28 28 29 29 28 27 26 24 21 20 20 21 19 19 19 18 18 17 17 17 17 17 17 17 17 17 16 15 16 16 15 15 15 15 15 15 14 15 15 15
34 34 30 24 24 26 28 28 28 28 27 24 22 19 20 20 20 22 21 21 19 18 18 18 18 18 17 18 17 17 16 16 15 16 16 15 15 15 16 16 16 16 16 16
34 34 33 27 20 20 23 27 28 28 27 24 21 21 22 20 21 23 22 21 21 20 19 19 19 19 18 18 17 17 17 16 16 16 16 15 16 16 17 17 18 17 17 17
35 34 33 30 24 22 22 24 25 27 27 25 22 21 23 23 25 26 23 22 22 21 20 19 19 19 19 18 18 18 17 16 16 16 16 16 16 17 18 18 17 17 17 18
34 34 33 30 26 25 25 25 25 26 26 26 26 25 26 27 27 27 25 24 23 22 22 21 20 19 19 19 18 19 18 17 17 17 17 16 17 18 18 18 17 17 18 18
32 33 32 29 27 27 25 24 25 26 27 28 28 29 27 26 28 28 27 25 24 23 22 21 20 19 19 19 18 18 18 18 18 18 18 19 19 19 18 17 18 18 18 19
31 32 31 29 27 26 25 26 26 27 28 29 29 28 29 28 29 29 27 25 24 23 22 21 20 20 19 19 19 19 19 19 19 19 19 19 19 19 18 19 19 19 20 20
31 31 31 30 28 25 26 26 27 27 29 29 30 30 30 29 30 28 26 25 23 22 22 21 20 20 20 20 20 20 20 20 20 20 20 19 19 19 19 20 20 20 20 20
31 31 31 29 29 27 26 26 26 28 30 30 30 30 29 29 29 28 26 24 22 22 21 21 21 20 21 21 21 21 21 21 21 21 20 20 20 20 20 20 20 21 21 21
30 31 31 30 29 28 28 28 29 30 30 30 29 29 29 28 28 26 24 22 22 22 21 21 21 21 21 21 21 22 22 22 22 22 21 21 21 21 21 21 21 22 21 21
31 32 32 32 31 30 30 30 29 28 29 28 28 28 27 27 27 25 24 24 23 23 22 22 22 22 22 22 22 22 22 22 22 22 22 23 23 22 22 22 22 23 23 23
32 32 33 34 33 32 30 29 28 28 27 27 27 27 26 26 26 25 24 24 23 23 23 23 22 22 22 22 22 22 22 22 23 23 24 24 23 23 23 23 24 24 24 23
33 35 36 36 36 34 32 29 28 27 27 27 26 25 26 26 25 25 25 24 24 23 23 23 23 23 23 23 23 23 23 23 24 23 23 22 22 22 23 23 24 24 24 23
33 35 35 34 34 32 31 30 28 28 28 27 26 26 26 25 25 25 24 24 24 24 24 24 23 23 24 24 23 23 23 23 23 23 22 22 22 23 23 23 23 23 23 24

GEFSCGP_500_meanwind_204.txt.gz
Wind_Speed
27 25 23 21 20 19 18 16 14 12 11 10 10 10 10 10 9 8 8 8 8 9 8 8 8 7 7 8 9 9 9 10 9 9 8 7 6 5 5 4 4 4 4 3
28 25 23 24 23 23 22 19 15 13 13 13 12 12 11 11 9 8 9 9 8 8 8 7 7 7 7 7 8 9 9 9 9 9 8 7 6 6 5 5 4 4 4 4
28 25 26 26 25 25 23 20 16 14 13 15 15 14 13 11 10 10 10 10 9 8 7 6 6 6 6 7 7 8 9 9 9 8 8 8 7 6 5 4 4 4 4 5
30 30 29 28 27 26 24 21 19 18 16 15 16 16 15 13 12 12 11 10 8 9 7 6 5 5 6 6 7 7 8 9 9 9 8 8 7 7 5 5 5 4 5 5
32 31 31 30 27 26 25 23 22 22 20 18 18 19 17 15 12 11 9 9 9 9 8 7 6 5 5 6 6 7 7 8 9 8 8 9 8 6 6 6 6 5 5 4
33 33 32 30 28 27 26 26 25 24 23 21 19 20 18 17 13 11 9 9 9 9 9 8 8 6 5 6 6 7 8 8 8 8 8 8 8 7 6 6 6 6 5 5
34 34 33 31 30 29 29 28 27 27 26 22 20 21 19 17 15 13 11 10 10 10 10 9 8 7 6 6 6 6 8 8 9 9 8 9 8 8 7 7 7 6 5 5
35 34 33 32 31 30 29 29 29 28 25 21 20 20 18 17 16 15 12 10 11 11 11 10 9 8 7 6 6 7 9 9 9 9 9 9 8 8 8 8 8 6 5 5
34 33 32 31 31 30 29 29 29 28 25 23 20 18 17 16 15 13 12 11 11 11 11 10 10 9 9 8 7 8 10 10 10 10 10 9 9 9 9 9 8 8 7 6
34 33 32 31 31 31 29 29 30 29 26 24 21 18 17 15 14 13 13 12 12 12 11 10 10 10 10 10 9 9 11 11 12 11 10 10 10 10 10 9 9 9 8 7
34 33 32 33 32 30 30 31 31 29 28 25 22 20 18 17 14 14 14 14 13 11 11 11 11 11 11 12 11 11 11 12 12 11 11 11 10 11 11 10 10 9 9 9
34 33 33 32 30 29 29 30 30 31 29 27 25 22 19 17 16 16 16 15 14 13 13 13 13 13 13 13 12 12 11 11 11 11 11 11 10 10 10 11 10 10 10 10
34 34 33 33 32 31 31 31 31 31 30 29 28 25 22 19 18 17 17 17 15 14 14 14 14 14 13 12 12 12 12 11 12 11 11 11 11 10 10 11 11 11 11 11
34 33 33 33 31 29 29 30 31 32 32 31 29 26 24 22 20 19 18 17 16 14 15 14 14 14 13 13 12 11 12 12 11 11 11 11 11 10 10 12 12 12 12 12
35 34 33 32 30 29 28 28 29 31 31 30 28 27 25 23 22 21 19 18 17 15 15 14 14 13 14 13 12 12 11 12 12 11 11 11 10 10 11 12 12 13 12 12
37 35 33 32 31 30 29 28 28 29 29 29 28 27 25 23 23 21 20 19 18 17 16 15 15 15 14 13 12 12 11 11 11 11 11 11 10 11 12 13 13 13 13 12
37 36 34 33 32 31 30 28 28 29 30 29 29 27 26 25 24 22 21 20 18 17 17 16 16 15 15 14 13 12 12 13 12 12 12 12 12 12 12 13 14 13 13 14
35 36 35 34 33 33 29 27 28 29 29 29 28 28 27 26 25 24 23 22 22 20 19 18 18 17 16 16 15 14 14 14 14 14 14 13 13 13 13 14 15 14 14 14
34 35 36 36 36 34 30 28 29 29 28 28 28 27 28 27 27 27 25 24 22 21 20 19 19 18 18 17 16 16 15 15 15 15 15 14 14 14 14 15 16 15 15 15
34 35 36 37 38 37 33 31 29 30 30 29 28 28 28 28 28 26 25 25 23 22 21 20 19 18 18 17 17 17 16 16 16 15 15 16 16 16 16 17 17 17 17 17
33 35 36 38 38 38 36 34 32 33 31 29 29 28 28 28 27 26 25 25 22 21 21 19 18 18 18 18 18 17 17 16 16 16 16 17 17 17 18 18 18 18 18 18
31 34 36 38 38 37 36 36 35 33 30 29 29 29 29 29 28 27 26 24 22 22 20 19 18 18 18 18 18 17 17 17 17 17 17 18 18 19 19 19 19 19 20 20
33 33 34 36 37 36 35 34 34 34 32 30 31 31 31 30 29 28 27 25 23 22 21 20 20 19 19 18 18 17 17 17 17 17 18 18 19 19 18 19 19 20 21 21
32 33 34 35 36 35 35 34 34 33 32 31 31 30 30 29 29 28 27 26 24 23 22 21 20 19 19 18 18 18 17 17 17 17 18 18 18 18 18 19 20 20 20 21
31 33 33 34 34 34 35 35 35 34 33 31 30 30 29 29 29 28 26 25 23 22 22 21 20 19 19 18 18 17 17 18 18 18 19 19 18 18 19 19 19 19 20 20
32 32 32 33 32 33 34 34 33 32 31 31 31 30 29 28 28 27 26 25 23 22 21 20 20 19 19 19 18 18 19 19 19 19 19 19 19 19 19 19 20 20 20 20

GEFSCGP_500_meanwind_210.txt.gz
Wind_Speed
26 25 22 21 20 19 18 17 15 13 11 9 7 4 4 4 4 4 4 5 6 7 8 8 8 8 7 6 6 6 7 6 6 6 6 6 6 6 5 4 3 3 3 3
29 27 25 24 23 21 20 19 17 16 14 12 10 8 6 5 4 4 4 4 6 8 8 7 7 7 8 7 5 6 6 6 6 6 6 7 6 6 5 4 4 4 4 4
30 29 28 27 25 23 21 20 20 19 17 16 13 10 8 6 5 4 4 4 6 6 6 6 6 7 7 6 6 6 5 5 6 6 6 7 6 6 6 5 4 4 5 5
32 31 31 29 27 25 23 22 23 22 20 19 17 13 10 8 6 5 5 5 5 5 5 6 6 6 6 6 6 6 5 5 6 6 6 7 7 7 6 5 5 5 6 6
33 33 32 31 28 27 26 26 25 24 23 21 18 16 12 10 8 6 6 6 6 5 5 6 6 6 6 6 6 6 6 6 6 7 7 7 8 7 7 6 7 7 7 6
35 35 34 33 31 30 29 28 27 26 25 23 20 17 13 11 10 9 8 8 7 7 6 7 7 7 8 7 7 7 7 7 7 8 8 8 8 8 7 7 7 8 8 8
37 36 35 34 34 33 31 30 29 28 28 24 21 19 14 13 12 11 10 9 8 8 8 8 8 8 7 7 7 7 8 8 8 9 9 9 10 9 8 8 8 9 9 9
37 36 36 35 34 33 32 31 30 30 28 25 23 21 17 15 14 13 11 11 10 9 9 9 8 7 7 7 8 8 9 9 10 10 9 10 10 10 9 9 9 9 10 9
37 36 36 36 35 34 33 33 31 31 29 28 25 23 20 18 15 13 12 11 11 10 9 9 9 9 9 9 10 10 11 11 12 11 10 11 11 11 11 11 10 10 10 9
38 38 37 37 37 36 35 33 33 32 31 29 27 24 21 19 16 14 12 11 11 10 9 10 10 10 10 10 11 12 12 12 13 12 12 12 12 12 12 12 11 11 11 10
38 38 38 38 38 36 35 35 34 33 32 30 27 24 21 19 17 14 13 12 12 12 11 10 10 10 11 12 12 12 13 13 13 13 13 13 13 13 12 12 12 11 11 11
37 38 38 38 37 36 35 34 33 33 31 29 28 24 22 20 19 16 15 15 14 13 11 11 10 10 12 13 13 13 14 14 14 13 12 13 14 14 13 13 12 12 12 11
37 38 38 38 37 37 36 34 33 32 32 31 29 26 23 21 20 19 18 16 15 14 13 13 13 12 12 13 13 12 13 14 13 13 13 13 13 13 13 13 13 13 12 12
37 37 36 36 36 35 35 34 33 32 33 31 29 27 24 22 20 20 19 18 16 15 15 15 14 13 12 13 12 12 13 13 13 13 13 12 12 13 13 13 13 12 12 13
37 36 34 34 34 34 34 33 32 32 31 30 28 28 26 24 23 21 20 19 18 16 16 15 14 13 13 14 13 14 14 13 13 12 13 12 12 13 12 12 12 13 14 14
36 35 34 34 33 33 33 33 32 31 30 29 29 27 26 25 23 22 21 20 19 18 17 17 16 15 15 14 14 14 14 14 13 13 13 13 13 13 13 13 13 14 15 15
35 34 34 34 33 33 34 32 31 31 30 29 28 26 26 24 23 22 22 21 20 19 19 18 17 16 16 16 16 15 14 14 14 14 14 14 15 15 15 15 15 15 16 16
33 34 34 34 34 35 33 32 31 30 29 28 27 26 25 23 23 22 21 20 20 19 19 19 18 18 18 17 16 16 15 15 15 15 15 16 16 16 16 17 16 17 17 17
32 32 33 34 34 34 34 33 31 30 28 27 26 26 25 24 24 22 20 20 20 21 20 20 20 20 18 17 16 16 16 16 16 16 16 17 17 17 17 17 17 17 18 18
32 32 33 34 34 35 34 33 31 30 28 26 25 24 25 24 24 22 21 20 20 20 20 20 20 18 18 17 17 16 17 17 17 17 17 17 17 17 18 18 18 18 19 19
32 31 31 32 33 34 33 32 31 30 28 26 24 24 24 24 22 21 21 21 21 20 20 19 19 18 17 18 18 17 17 18 18 17 17 17 18 18 18 18 18 19 19 18
32 31 31 31 32 32 32 32 31 29 27 26 25 24 23 23 22 21 22 22 21 21 20 19 19 18 18 18 18 18 19 18 18 18 18 18 18 18 19 19 19 19 19 19
32 31 30 30 30 30 30 31 31 29 28 27 26 25 23 23 22 22 22 22 21 19 19 19 19 19 19 19 19 19 19 19 19 19 18 18 18 19 20 20 20 20 20 20
33 31 30 29 29 28 29 30 30 29 29 28 27 26 24 23 23 23 23 23 22 21 21 20 20 20 20 20 21 21 21 20 20 20 19 19 19 19 20 20 20 20 20 20
33 32 30 30 29 28 28 28 29 29 29 29 29 28 27 26 26 25 24 23 22 22 21 21 21 21 21 21 21 21 21 20 20 20 20 20 19 19 20 20 20 20 20 20
32 31 31 31 30 29 29 29 29 29 29 29 30 29 29 28 27 25 24 23 22 22 22 22 22 22 22 21 21 20 20 20 20 20 20 19 19 19 20 20 20 20 20 20

GEFSCGP_500_meanwind_216.txt.gz
Wind_Speed
23 21 19 17 16 15 14 12 11 10 8 7 5 3 2 2 3 4 4 4 5 6 7 7 7 7 7 8 9 8 7 7 7 7 7 7 6 6 6 6 5 4 4 4
25 24 22 20 18 17 15 14 13 11 10 8 7 6 5 4 3 3 3 3 4 5 6 6 7 7 8 8 8 9 8 9 9 8 8 7 7 7 7 6 6 5 5 4
27 26 25 22 20 19 17 16 15 14 12 11 9 7 7 5 4 4 4 4 4 4 5 6 7 7 8 9 9 9 9 9 10 9 8 8 8 8 8 8 7 7 6 6
30 28 26 25 23 21 20 19 18 16 14 13 11 9 9 7 6 5 5 5 5 4 5 6 7 8 8 8 9 9 9 9 9 8 8 8 8 9 9 9 8 8 7 7
32 30 28 27 25 24 23 21 19 18 16 14 13 11 11 10 8 7 6 6 5 5 5 7 7 7 8 9 9 9 9 9 8 8 8 8 9 9 10 10 10 9 8 8
34 32 31 30 28 27 25 23 21 20 18 18 16 13 12 11 9 8 8 7 6 5 6 7 7 8 9 9 9 8 10 10 9 8 9 9 9 10 10 10 10 9 9 8
35 34 33 32 31 30 28 25 23 22 22 20 18 15 14 12 10 10 9 8 8 8 8 8 8 8 9 10 9 9 9 10 10 9 10 10 10 11 11 11 11 10 10 10
35 35 34 33 32 30 28 27 25 22 20 20 20 17 15 13 12 11 10 9 9 9 9 9 9 10 10 10 10 9 10 11 11 11 11 11 11 12 12 12 12 11 11 11
35 35 34 33 33 32 30 30 26 24 22 20 20 18 16 15 14 12 11 11 10 10 10 10 10 11 11 11 11 11 11 11 12 12 12 12 12 12 13 14 13 12 11 11
37 36 36 34 34 34 32 30 29 27 24 21 20 19 17 17 16 14 12 12 11 11 11 11 11 11 12 12 11 12 12 13 12 12 12 13 12 13 14 14 12 12 12 11
37 37 36 36 35 34 33 32 31 29 27 22 20 19 18 18 16 15 14 13 12 12 12 12 12 12 12 12 13 13 13 14 13 13 13 12 12 13 14 13 12 11 10 10
37 37 36 36 36 35 34 34 32 30 29 26 21 19 20 18 17 16 15 14 14 13 13 13 13 13 13 13 14 14 14 14 14 15 14 13 13 14 13 12 12 12 11 11
37 37 36 36 37 37 36 35 33 31 29 27 23 21 21 19 18 17 16 16 15 15 14 13 14 14 14 14 14 15 15 15 15 15 14 14 14 13 12 12 12 13 12 11
36 36 36 34 33 34 35 34 33 32 30 28 25 22 22 20 19 18 18 18 17 16 16 16 16 16 16 15 16 16 16 16 16 15 14 14 14 13 13 12 13 13 12 12
35 35 35 34 33 33 33 34 33 32 30 29 26 24 23 21 20 19 19 19 18 18 18 17 17 17 17 16 16 17 16 17 17 15 15 15 14 13 13 14 13 13 13 14
34 34 34 34 33 32 33 34 33 33 31 30 28 26 24 23 22 21 20 20 19 19 18 18 18 18 17 17 17 17 16 16 16 16 15 14 13 14 14 14 14 14 14 15
33 32 32 31 32 32 34 33 33 32 31 30 29 27 26 24 23 22 21 21 21 20 20 19 19 19 18 18 18 18 17 17 16 15 14 13 13 14 15 15 16 16 16 16
33 32 31 29 31 32 32 31 31 31 30 29 29 27 26 25 24 23 22 22 21 21 20 20 20 19 19 19 18 18 18 17 17 16 15 15 15 16 16 17 17 18 18 18
32 31 31 30 29 30 31 30 30 29 29 28 27 26 25 24 24 23 23 23 23 23 21 20 20 19 19 19 18 18 18 18 17 16 16 16 17 17 17 18 18 18 19 19
31 31 31 31 28 29 30 29 29 28 28 28 27 25 25 24 23 23 22 22 22 22 21 20 20 20 20 20 19 18 18 17 17 17 17 18 18 18 18 19 19 19 20 20
31 31 31 31 28 28 29 29 28 28 28 27 26 25 24 24 23 21 21 21 22 21 21 21 21 20 20 19 19 18 18 18 18 18 18 19 19 19 19 19 19 19 19 20
30 30 31 30 28 28 29 29 29 28 27 26 25 25 24 24 23 22 22 22 22 21 22 21 21 20 19 19 19 19 19 19 18 18 18 19 19 20 20 19 19 19 20 21
30 30 30 30 28 28 27 27 28 28 27 26 26 25 24 24 24 23 22 22 22 22 22 22 21 20 19 19 20 20 19 19 20 19 19 19 19 19 19 19 19 20 21 21
29 29 29 29 27 26 25 25 27 27 27 27 26 26 25 24 24 23 23 22 22 23 23 22 21 21 21 21 20 20 20 21 20 20 20 20 20 20 20 21 21 21 21 21
29 29 28 28 27 25 25 26 26 27 27 26 27 27 26 25 25 25 24 24 23 23 23 22 22 21 21 20 20 20 20 20 20 21 21 21 21 21 21 22 22 21 21 21
30 29 28 27 26 26 25 26 26 26 26 26 26 27 26 26 25 25 24 24 23 23 23 23 22 21 20 20 20 21 22 21 21 21 21 21 22 21 21 22 22 22 22 23

GEFSCGP_500_meanwind_222.txt.gz
Wind_Speed
18 17 15 13 11 9 9 8 8 7 9 9 7 6 6 7 8 9 9 9 9 10 11 12 11 11 12 12 12 12 13 13 13 12 12 11 10 10 9 9 8 8 7 6
21 19 17 15 13 13 13 13 10 9 9 9 8 8 7 9 9 10 10 9 8 8 9 10 10 11 11 12 11 11 12 13 13 12 12 12 11 11 10 9 8 8 7 6
23 19 18 18 17 16 15 14 12 12 11 10 9 10 10 10 9 9 9 8 8 7 8 9 9 10 11 12 12 12 12 13 13 12 12 12 12 11 11 11 9 8 8 8
25 22 22 21 20 18 17 15 15 14 13 11 10 13 14 13 11 9 8 9 9 8 7 8 9 10 11 11 12 12 12 13 13 13 11 12 12 12 11 11 11 10 9 9
26 26 25 24 22 20 18 17 17 15 14 13 12 14 14 15 13 11 9 10 9 9 8 8 8 9 10 11 11 12 12 12 12 12 12 12 12 12 12 12 12 11 11 10
28 27 27 25 23 22 20 18 17 15 15 16 14 14 15 16 15 11 11 11 10 9 9 8 8 9 10 11 11 12 12 12 12 13 13 13 13 13 13 13 12 12 11 11
30 28 27 27 25 24 23 20 18 16 17 18 15 15 16 16 15 13 12 12 11 10 9 9 9 9 10 10 11 12 12 12 13 13 13 13 13 14 14 14 13 12 12 11
30 30 28 28 28 26 25 23 20 17 15 14 14 16 17 17 15 14 13 13 12 11 10 10 9 9 10 11 11 12 12 12 13 14 14 14 14 14 14 14 14 13 12 12
28 29 28 29 29 27 26 25 22 18 16 16 16 16 17 17 16 15 13 13 12 12 10 9 10 10 11 11 12 12 13 13 13 14 14 15 14 14 14 15 14 13 12 11
28 25 26 30 30 29 27 24 23 23 21 19 17 18 18 17 17 16 15 14 13 13 12 11 11 11 11 11 12 13 14 14 14 14 15 15 15 15 15 15 15 15 14 12
32 27 25 29 31 30 29 27 26 25 23 20 18 19 18 18 18 17 17 16 15 14 13 12 12 12 11 11 12 14 15 15 15 15 16 16 16 16 15 15 15 15 14 13
34 30 26 28 30 29 29 29 27 27 27 24 19 18 19 20 21 19 18 16 16 15 14 13 13 13 13 12 13 14 15 16 16 16 17 16 16 16 15 14 14 14 14 13
35 33 30 27 28 29 30 30 29 27 27 25 21 21 22 22 20 19 18 17 18 17 15 14 13 14 14 14 14 15 15 16 17 17 17 17 16 16 15 15 14 14 14 13
35 36 35 28 26 27 30 31 30 29 28 26 24 23 22 22 21 20 19 19 19 17 16 15 15 15 15 15 16 15 16 16 17 17 17 17 17 16 16 15 15 15 15 14
37 37 37 33 25 24 26 30 31 32 31 27 24 24 23 22 22 21 21 20 20 18 17 17 17 16 16 16 16 16 16 16 17 17 17 17 17 15 15 15 15 15 15 15
37 38 38 37 31 26 26 27 29 31 31 30 27 24 24 26 25 25 23 21 21 19 18 19 18 17 17 17 17 17 17 17 17 17 17 17 17 16 16 17 16 16 16 16
36 37 37 36 34 30 30 27 27 29 30 30 30 27 26 26 26 27 24 22 22 20 20 20 20 19 18 18 18 18 18 18 18 17 17 17 17 17 17 18 18 17 17 18
34 36 36 33 32 34 32 27 26 28 30 31 31 29 28 28 28 26 24 23 23 21 21 21 21 19 19 19 19 19 19 19 18 18 18 17 18 18 19 19 19 18 19 19
33 34 34 32 30 31 32 30 28 28 29 30 31 30 30 30 29 27 26 24 24 23 23 22 21 20 20 20 20 20 20 20 19 19 18 18 19 18 19 19 19 19 19 19
33 33 34 33 29 29 31 30 29 29 31 32 32 33 32 30 30 29 27 26 25 24 23 23 22 21 21 21 21 20 20 20 20 19 19 19 19 19 19 19 19 20 20 21
32 33 33 32 30 28 27 29 28 29 30 31 31 32 32 31 30 28 26 27 26 24 24 23 23 22 22 21 22 22 22 21 21 20 19 19 19 19 20 20 21 21 22 22
32 32 33 32 30 29 27 27 28 29 30 31 31 31 31 30 30 29 27 27 27 24 23 24 23 23 23 22 22 22 21 21 21 20 20 20 20 20 21 22 22 22 22 22
31 31 31 32 33 30 30 32 32 31 31 31 30 30 29 29 29 29 28 27 24 24 24 24 24 24 24 24 23 22 22 22 22 21 21 21 21 22 23 23 24 23 23 23
31 32 32 33 35 33 31 30 31 32 31 30 29 28 28 28 29 28 26 25 24 23 23 23 23 23 23 23 23 24 24 24 23 23 22 23 23 24 24 24 24 24 24 24
32 33 34 34 35 35 35 32 31 31 30 29 27 28 28 28 29 28 27 25 24 24 24 24 24 24 24 24 23 23 23 24 24 24 23 23 24 25 25 26 25 25 24 24
32 33 34 35 35 34 33 32 31 31 30 28 27 27 29 29 28 26 25 25 25 25 24 24 24 25 24 24 24 24 24 24 24 24 23 24 25 25 26 26 25 24 24 23

GEFSCGP_500_meanwind_228.txt.gz
Wind_Speed
20 19 17 15 12 10 9 7 5 4 2 4 6 8 9 10 11 12 12 12 12 12 12 12 13 13 14 14 14 13 13 13 12 12 11 10 8 7 7 6 6 6 4 4
22 20 18 17 15 13 11 9 6 5 5 5 6 8 7 8 10 10 11 11 11 11 11 11 11 12 13 13 13 13 12 12 12 12 11 10 9 8 7 7 6 6 5 4
23 22 21 20 17 15 13 11 9 8 7 7 7 7 8 7 8 8 8 9 9 10 10 10 10 11 11 12 12 12 12 12 12 12 12 11 10 9 8 7 7 6 5 5
26 25 23 22 19 17 16 13 13 12 10 9 9 9 9 8 7 6 7 7 7 8 9 9 9 9 10 10 11 11 11 11 11 11 12 11 11 11 9 8 7 6 5 5
27 26 25 23 21 19 17 16 16 16 15 14 12 11 10 10 8 7 7 7 6 8 8 8 8 8 9 10 10 10 10 10 11 11 11 12 12 11 10 9 8 7 6 5
28 27 27 26 23 21 20 20 19 19 18 17 14 13 12 11 10 10 9 8 7 8 7 7 7 8 8 9 9 9 9 10 10 11 11 11 11 12 11 10 8 8 7 7
30 29 28 27 27 25 24 23 22 22 21 19 15 14 13 12 11 11 10 9 8 8 7 6 6 7 7 8 9 9 9 9 10 11 11 10 11 12 12 11 10 9 8 7
31 30 29 28 28 27 26 26 25 24 22 20 18 16 12 11 10 10 9 8 8 8 7 6 7 7 7 8 8 9 9 9 10 11 11 11 11 12 12 11 11 10 9 7
31 31 30 29 28 28 27 27 25 24 22 21 18 16 14 12 10 10 9 9 9 8 8 7 6 7 7 7 8 9 10 10 10 11 11 12 11 12 11 11 11 10 10 8
32 32 31 30 30 29 28 27 27 26 24 22 20 18 15 11 10 11 11 9 9 9 9 8 7 7 7 8 8 9 10 10 11 11 12 12 12 12 11 12 12 11 10 10
33 33 32 31 31 30 29 28 28 27 26 24 22 21 17 13 12 12 12 12 11 10 9 9 8 9 9 8 9 10 10 11 11 11 12 12 12 12 11 11 12 12 11 10
33 34 33 33 31 29 30 29 28 29 28 26 25 23 20 17 14 14 13 12 12 10 9 9 9 9 10 9 9 10 11 12 11 11 12 12 12 12 12 12 12 12 11 11
34 35 34 34 33 32 32 31 30 29 29 28 27 24 22 20 18 17 15 13 13 12 11 11 11 11 10 10 10 11 12 12 12 12 12 12 12 12 12 12 12 12 12 11
34 35 35 34 33 33 33 32 31 31 31 29 28 26 23 22 21 19 18 16 15 14 13 12 12 12 12 12 12 12 12 12 12 12 12 12 12 13 13 13 13 13 12 12
35 35 34 34 34 34 33 32 33 33 32 30 29 27 24 23 22 21 20 19 17 16 14 14 14 14 14 14 13 13 13 12 13 13 13 13 13 13 14 13 13 13 13 14
36 37 36 35 35 35 35 34 33 33 32 31 30 29 26 24 23 23 21 20 20 18 16 16 15 15 15 14 14 14 13 13 13 13 14 14 14 14 14 14 14 14 14 15
37 37 37 36 36 37 38 34 33 33 32 31 30 29 28 26 25 23 21 20 20 20 19 18 16 16 15 15 15 15 14 14 14 14 14 14 14 14 14 14 14 15 15 16
37 37 38 38 37 39 35 33 32 31 31 31 30 29 28 27 26 24 24 22 21 21 20 19 17 17 17 16 16 16 16 16 15 15 15 15 15 15 15 15 16 16 17 17
36 37 38 38 39 38 36 33 32 31 31 31 31 30 30 28 28 27 26 24 23 22 20 20 18 18 18 18 18 17 17 17 16 16 17 17 16 16 16 16 16 17 17 17
36 37 37 38 39 39 36 34 32 32 32 31 31 31 31 31 30 28 26 25 25 24 22 21 20 20 20 20 19 19 19 18 17 17 18 18 17 17 17 17 18 18 17 18
37 36 36 36 37 37 36 36 34 34 33 32 32 31 31 31 31 29 29 28 27 26 24 23 22 22 22 20 20 21 20 19 18 18 19 18 18 18 18 18 19 19 19 19
36 36 35 36 36 37 36 37 38 36 33 32 32 33 33 32 31 30 30 29 29 27 26 24 22 22 22 22 22 21 21 19 19 19 20 20 19 19 19 19 19 19 20 20
35 35 34 36 36 34 35 36 37 37 35 33 32 32 34 34 32 31 30 30 28 27 26 24 23 23 24 24 24 23 22 21 20 20 21 21 20 20 20 20 20 20 20 21
36 35 36 37 37 35 34 34 35 35 36 34 33 32 32 33 32 32 31 31 29 28 27 25 24 24 24 25 24 23 23 23 21 22 23 22 21 20 20 20 20 21 22 22
35 35 37 37 36 35 35 35 34 34 35 35 34 33 32 31 32 32 32 32 31 30 28 27 26 25 25 24 23 22 22 21 21 21 22 21 21 20 20 20 21 22 23 23
34 34 36 35 35 35 36 37 36 35 35 35 35 35 31 30 30 31 31 31 31 31 30 29 28 27 25 25 24 24 23 22 22 22 21 21 21 20 21 21 22 23 23 23

GEFSCGP_500_meanwind_234.txt.gz
Wind_Speed
21 19 18 16 14 12 9 7 5 4 2 2 3 5 6 7 8 9 10 11 12 12 12 12 13 13 12 12 13 13 13 13 12 11 11 11 10 10 9 8 7 7 7 6
23 22 20 19 17 14 12 9 7 6 4 3 1 1 4 4 5 7 8 9 10 11 11 11 11 12 11 11 12 12 12 12 12 11 11 11 10 10 10 9 8 8 7 7
24 23 22 20 18 17 14 12 10 9 8 6 4 2 2 2 3 5 7 8 8 9 9 9 10 10 11 11 11 11 11 11 11 11 10 11 11 10 10 9 9 8 7 6
26 26 24 22 20 19 17 15 13 12 11 8 6 4 2 2 3 4 6 7 7 8 9 8 8 9 10 10 10 11 11 11 11 10 10 10 10 11 10 9 9 8 7 7
27 27 25 24 22 21 20 18 16 15 14 11 9 7 5 4 3 3 5 5 6 7 7 7 7 8 9 9 9 10 11 11 11 10 10 10 10 10 10 10 9 8 8 8
28 27 26 25 24 24 22 21 19 18 17 15 12 11 8 6 5 3 4 5 6 6 6 7 7 7 8 8 8 9 10 10 10 10 10 10 10 10 10 10 9 9 9 9
29 29 28 27 26 26 25 23 22 21 19 17 15 14 11 9 8 5 4 5 6 7 6 6 7 8 7 7 8 8 9 10 10 10 10 10 10 10 11 10 9 9 10 10
31 30 29 28 28 27 27 25 24 23 22 20 19 17 14 13 11 9 7 6 6 6 6 6 7 7 7 7 8 8 9 9 9 10 10 10 11 11 11 10 10 10 10 10
32 30 30 29 29 30 30 29 27 26 25 23 21 19 16 15 13 11 10 8 7 7 7 6 7 7 7 8 8 9 8 9 9 10 11 11 11 11 11 11 11 11 11 11
33 32 31 31 31 31 31 30 29 29 27 26 24 22 18 16 15 14 12 10 9 9 9 8 8 8 8 9 9 9 9 9 9 10 10 11 11 11 12 12 12 11 11 11
33 33 32 32 32 32 32 32 31 30 30 28 26 23 20 18 17 15 13 12 11 10 10 10 9 9 9 10 10 10 9 10 10 10 11 11 12 12 12 12 12 12 12 12
34 34 33 33 33 33 33 32 31 31 30 29 27 24 21 20 19 16 15 14 13 12 11 11 10 11 11 11 11 10 11 11 11 11 12 12 12 13 13 14 14 13 12 12
35 35 34 34 35 34 34 34 32 31 31 30 29 25 22 21 20 18 17 15 14 13 12 12 12 12 12 12 12 12 12 12 12 12 12 13 13 13 13 14 14 13 12 12
37 36 35 35 34 34 34 34 33 32 32 31 29 25 23 22 20 19 18 17 17 15 14 14 13 13 14 14 14 13 13 12 12 12 13 13 13 12 13 14 14 13 13 13
38 37 36 35 35 35 34 34 33 33 32 31 29 26 23 22 21 20 19 18 17 16 16 16 15 16 16 16 15 15 14 13 14 14 14 13 13 13 13 14 14 14 14 14
38 38 37 36 36 36 35 34 33 33 32 31 30 28 25 24 23 21 21 20 19 18 18 17 17 17 17 17 16 16 16 15 15 15 15 14 14 14 14 14 14 15 15 15
37 37 37 37 36 36 37 34 33 33 32 31 31 29 27 26 24 22 21 20 20 19 19 18 18 17 17 17 17 17 17 17 17 17 16 16 16 16 16 16 16 16 16 16
35 36 36 35 36 38 35 34 34 34 33 32 31 29 29 27 25 24 23 22 21 20 19 19 18 18 18 18 17 17 18 18 18 18 18 18 18 18 17 17 18 17 17 17
36 36 36 35 36 36 35 34 34 34 34 33 32 30 29 28 27 26 23 22 22 22 21 20 19 19 19 19 19 19 19 19 19 19 19 19 19 19 19 18 19 18 18 18
36 36 37 36 36 36 34 34 34 35 35 33 33 31 30 29 29 26 24 23 23 23 22 21 20 20 20 20 20 20 20 20 20 19 19 20 20 20 21 21 20 20 19 19
36 36 36 36 36 35 34 34 34 35 34 33 33 32 31 30 28 26 26 26 25 24 24 24 23 23 22 22 21 21 20 20 20 20 20 21 21 22 22 22 21 20 19 20
35 35 36 36 36 36 35 34 35 34 33 33 32 32 31 30 29 27 27 27 27 25 25 24 24 24 23 22 21 21 20 20 20 21 22 23 23 22 22 22 20 19 19 19
35 36 36 36 36 35 35 35 35 34 34 33 33 32 31 30 29 29 29 28 27 26 25 25 24 23 24 23 22 22 22 22 21 22 22 23 23 23 23 21 21 21 20 20
35 35 35 35 35 34 34 35 34 33 32 32 33 32 32 32 30 30 31 30 29 28 27 26 25 24 25 24 24 23 23 23 23 23 22 22 22 22 23 22 22 20 20 21
36 35 35 35 35 35 34 34 33 32 32 32 32 32 32 32 32 32 32 31 30 30 29 29 28 26 24 24 24 24 23 23 23 23 23 23 23 24 24 23 22 23 21 22
35 35 35 35 35 35 35 34 33 33 32 32 31 31 32 33 32 32 31 31 31 30 30 28 28 27 27 26 26 25 25 24 24 24 24 23 23 23 23 24 24 24 23 22